EI4HQ Weather Reports


Display with metric or nautical units.
time (UTC)temp
F
wind
direction
speed
MPH
gust
MPH
rain 1hr
in
rain 24hr
in
rain mn
in
humidity
%
barometer
mb
20240223162939 32 288 1.0 7.0 0.00 0.00 0.00 1 988.2
20240223162039 32 275 0.0 7.0 0.00 0.00 0.00 1 988.3
20240223161139 32 299 0.0 6.0 0.00 0.00 0.00 1 988.3
20240223160239 32 297 0.0 5.0 0.00 0.00 0.00 1 988.2
20240223155339 32 308 0.0 5.0 0.00 0.00 0.00 1 988.2
20240223154439 32 312 1.0 8.0 0.00 0.00 0.00 1 988.3
20240223153539 32 346 1.0 8.0 0.00 0.00 0.00 1 988.0
20240223152639 32 337 1.0 8.0 0.00 0.00 0.00 1 987.8
20240223151739 32 338 1.0 7.0 0.00 0.00 0.00 1 987.5
20240223150839 32 334 2.0 10.0 0.00 0.00 0.00 1 987.6
20240223145939 32 298 1.0 17.0 0.00 0.00 0.00 1 987.5
20240223145039 32 305 2.0 13.0 0.00 0.00 0.00 1 987.6
20240223144139 32 298 2.0 10.0 0.00 0.00 0.00 1 987.6
20240223143239 32 302 2.0 10.0 0.00 0.00 0.00 1 987.5
20240223142339 32 308 3.0 17.0 0.00 0.00 0.00 1 987.5
20240223141439 32 298 4.0 17.0 0.00 0.00 0.00 1 987.5
20240223140539 32 296 2.0 15.0 0.00 0.00 0.00 1 987.4
20240223135639 32 307 2.0 9.0 0.00 0.00 0.00 1 987.3
20240223134739 32 297 4.0 17.0 0.00 0.00 0.00 1 987.3
20240223133839 32 304 3.0 13.0 0.00 0.00 0.00 1 987.4
20240223132939 32 316 2.0 12.0 0.00 0.00 0.00 1 987.5
20240223132039 32 306 2.0 14.0 0.00 0.00 0.00 1 987.5
20240223131139 32 311 1.0 17.0 0.00 0.00 0.00 1 987.5
20240223130239 32 300 2.0 11.0 0.00 0.00 0.00 1 987.5
20240223125339 32 298 1.0 12.0 0.00 0.00 0.00 1 987.5
20240223124439 32 305 1.0 11.0 0.00 0.00 0.00 1 987.3
20240223123539 32 318 0.0 5.0 0.00 0.00 0.00 1 987.3
20240223122639 32 335 3.0 14.0 0.00 0.00 0.00 1 987.3
20240223121739 32 340 6.0 19.0 0.00 0.00 0.00 1 987.4
20240223120839 32 327 3.0 10.0 0.00 0.00 0.00 1 987.4
20240223115939 32 307 2.0 12.0 0.00 0.00 0.00 1 987.3
20240223115039 32 330 1.0 7.0 0.00 0.00 0.00 1 987.3
20240223114139 32 318 1.0 9.0 0.00 0.00 0.00 1 987.2
20240223113239 32 329 2.0 6.0 0.00 0.00 0.00 1 987.0
20240223112339 32 303 2.0 9.0 0.00 0.00 0.00 1 987.0
20240223111439 32 299 3.0 11.0 0.00 0.00 0.00 1 987.1
20240223110539 32 300 5.0 13.0 0.00 0.00 0.00 1 986.9
20240223105639 32 303 4.0 10.0 0.00 0.00 0.00 1 986.9
20240223104739 32 300 4.0 14.0 0.00 0.00 0.00 1 986.8
20240223103839 32 293 3.0 12.0 0.00 0.00 0.00 1 986.7
20240223102939 32 292 6.0 15.0 0.00 0.00 0.00 1 986.7
20240223102039 32 292 5.0 12.0 0.00 0.00 0.00 1 986.7
20240223101139 32 295 4.0 17.0 0.00 0.00 0.00 1 986.6
20240223100239 32 301 5.0 17.0 0.00 0.00 0.00 1 986.5
20240223095339 32 300 5.0 14.0 0.00 0.00 0.00 1 986.5
20240223094439 32 297 5.0 15.0 0.00 0.00 0.00 1 986.4
20240223093539 32 292 3.0 13.0 0.00 0.00 0.00 1 986.4
20240223092639 32 296 3.0 12.0 0.00 0.00 0.00 1 986.3
20240223091738 32 298 3.0 12.0 0.00 0.00 0.00 1 986.3
20240223090838 32 293 3.0 15.0 0.00 0.00 0.00 1 986.2
20240223085939 32 286 4.0 10.0 0.00 0.00 0.00 1 986.1
20240223085038 32 285 2.0 9.0 0.00 0.00 0.00 1 986.0
20240223084138 32 292 3.0 12.0 0.00 0.00 0.00 1 986.2
20240223083238 32 298 3.0 13.0 0.00 0.00 0.00 1 986.3
20240223082338 32 278 1.0 9.0 0.00 0.00 0.00 1 986.4
20240223081438 32 270 1.0 5.0 0.00 0.00 0.00 1 986.2
20240223080538 32 275 0.0 4.0 0.00 0.00 0.00 1 986.1
20240223075638 32 280 1.0 7.0 0.00 0.00 0.00 1 986.1
20240223074738 32 283 1.0 6.0 0.00 0.00 0.00 1 985.9
20240223073838 32 289 0.0 4.0 0.00 0.00 0.00 1 985.8
20240223072938 32 328 0.0 3.0 0.00 0.00 0.00 1 985.6
20240223072038 32 301 0.0 3.0 0.00 0.00 0.00 1 985.5
20240223071138 32 294 1.0 7.0 0.00 0.00 0.00 1 985.7
20240223070238 32 296 3.0 10.0 0.00 0.00 0.00 1 985.8
20240223065338 32 305 3.0 9.0 0.00 0.00 0.00 1 985.9
20240223064438 32 302 3.0 11.0 0.00 0.00 0.00 1 985.9
20240223063538 32 305 4.0 13.0 0.00 0.00 0.00 1 985.8
20240223062638 32 302 4.0 14.0 0.00 0.00 0.00 1 985.8
20240223061738 32 297 3.0 14.0 0.00 0.00 0.00 1 985.7
20240223060838 32 295 2.0 12.0 0.00 0.00 0.00 1 985.6
20240223055938 32 287 2.0 11.0 0.00 0.00 0.00 1 985.3
20240223055038 32 276 3.0 9.0 0.00 0.00 0.00 1 985.2
20240223054138 32 277 2.0 11.0 0.00 0.00 0.00 1 985.5
20240223053238 32 271 3.0 8.0 0.00 0.00 0.00 1 985.6
20240223052338 32 270 2.0 6.0 0.00 0.00 0.00 1 985.7
20240223051438 32 273 3.0 10.0 0.00 0.00 0.00 1 985.7
20240223050538 32 270 3.0 9.0 0.00 0.00 0.00 1 985.6
20240223045638 32 271 2.0 8.0 0.00 0.00 0.00 1 985.5
20240223044738 32 269 4.0 10.0 0.00 0.00 0.00 1 985.5
20240223043838 32 262 4.0 9.0 0.00 0.00 0.00 1 985.5
20240223042938 32 262 2.0 7.0 0.00 0.00 0.00 1 985.3
20240223042038 32 261 1.0 5.0 0.00 0.00 0.00 1 985.5
20240223041138 32 260 2.0 6.0 0.00 0.00 0.00 1 985.3
20240223040238 32 274 3.0 10.0 0.00 0.00 0.00 1 985.3
20240223035338 32 290 3.0 11.0 0.00 0.00 0.00 1 985.3
20240223034438 32 302 3.0 11.0 0.00 0.00 0.00 1 985.7
20240223033538 32 304 2.0 9.0 0.00 0.00 0.00 1 985.7
20240223032638 32 320 3.0 15.0 0.00 0.00 0.00 1 985.8
20240223031738 32 303 5.0 18.0 0.00 0.00 0.00 1 986.2
20240223030838 32 301 6.0 18.0 0.00 0.00 0.00 1 986.3
20240223025938 32 300 5.0 17.0 0.00 0.00 0.00 1 986.3
20240223025038 32 297 5.0 15.0 0.00 0.00 0.00 1 986.1
20240223024138 32 297 3.0 16.0 0.00 0.00 0.00 1 985.9
20240223023238 32 283 3.0 13.0 0.00 0.00 0.00 1 985.9
20240223022338 32 275 2.0 13.0 0.00 0.00 0.00 1 986.1
20240223021438 32 270 2.0 11.0 0.00 0.00 0.00 1 986.0
20240223020538 32 283 1.0 7.0 0.00 0.00 0.00 1 986.0
20240223015638 32 278 1.0 9.0 0.00 0.00 0.00 1 986.2
20240223014738 32 278 1.0 7.0 0.00 0.00 0.00 1 986.3
20240223013838 32 298 0.0 6.0 0.00 0.00 0.00 1 986.5
20240223012938 32 299 1.0 7.0 0.00 0.00 0.00 1 986.6
20240223012038 32 291 1.0 8.0 0.00 0.00 0.00 1 986.5
20240223011138 32 300 1.0 11.0 0.00 0.00 0.00 1 986.3
20240223010238 32 283 0.0 2.0 0.00 0.00 0.00 1 986.5
20240223005338 32 298 0.0 6.0 0.00 0.00 0.00 1 986.5
20240223004438 32 356 0.0 1.0 0.00 0.00 0.00 1 986.6
20240223003538 32 353 2.0 8.0 0.00 0.00 0.00 1 986.7
20240223002638 32 306 0.0 3.0 0.00 0.00 0.00 1 986.5
20240223001738 32 262 1.0 6.0 0.00 0.00 0.00 1 986.1
20240223000838 32 263 2.0 6.0 0.00 0.00 0.00 1 986.0
20240222235938 32 261 3.0 8.0 0.00 0.00 0.00 1 985.9
20240222235038 32 268 1.0 6.0 0.00 0.00 0.00 1 985.7
20240222234138 32 294 1.0 7.0 0.00 0.00 0.00 1 985.8
20240222233238 32 298 2.0 10.0 0.00 0.00 0.00 1 985.7
20240222232338 32 290 1.0 10.0 0.00 0.00 0.00 1 985.6
20240222231438 32 296 0.0 6.0 0.00 0.00 0.00 1 985.6
20240222230538 32 309 1.0 5.0 0.00 0.00 0.00 1 985.8
20240222225638 32 323 3.0 10.0 0.00 0.00 0.00 1 985.7
20240222224738 32 324 5.0 17.0 0.00 0.00 0.00 1 985.7
20240222223838 32 301 4.0 18.0 0.00 0.00 0.00 1 986.0
20240222222938 32 287 4.0 14.0 0.00 0.00 0.00 1 985.7
20240222222038 32 281 3.0 13.0 0.00 0.00 0.00 1 985.5
20240222221138 32 284 2.0 11.0 0.00 0.00 0.00 1 985.5
20240222220237 32 299 3.0 13.0 0.00 0.00 0.00 1 985.2
20240222215337 32 290 2.0 9.0 0.00 0.00 0.00 1 985.2
20240222214437 32 279 1.0 8.0 0.00 0.00 0.00 1 985.3
20240222213537 32 264 0.0 5.0 0.00 0.00 0.00 1 985.2
20240222212637 32 290 0.0 10.0 0.00 0.00 0.00 1 985.3
20240222211737 32 283 2.0 12.0 0.00 0.00 0.00 1 985.0
20240222210837 32 295 3.0 14.0 0.00 0.00 0.00 1 985.0
20240222205937 32 295 2.0 12.0 0.00 0.00 0.00 1 984.9
20240222205037 32 288 1.0 12.0 0.00 0.00 0.00 1 984.8
20240222204137 32 293 1.0 8.0 0.00 0.00 0.00 1 984.7
20240222203237 32 291 3.0 11.0 0.00 0.00 0.00 1 984.7
20240222202337 32 281 2.0 12.0 0.00 0.00 0.00 1 984.6
20240222201437 32 287 1.0 9.0 0.00 0.00 0.00 1 984.6
20240222200537 32 272 2.0 9.0 0.00 0.00 0.00 1 984.4
20240222195637 32 277 2.0 8.0 0.00 0.00 0.00 1 984.2
20240222194737 32 272 2.0 10.0 0.00 0.00 0.00 1 984.1
20240222193837 32 273 4.0 12.0 0.00 0.00 0.00 1 984.1
20240222192937 32 273 5.0 15.0 0.00 0.00 0.00 1 984.2
20240222192037 32 264 5.0 13.0 0.00 0.00 0.00 1 984.0
20240222191137 32 268 5.0 14.0 0.00 0.00 0.00 1 983.9
20240222190237 32 268 5.0 14.0 0.00 0.00 0.00 1 984.1
20240222185337 32 263 9.0 18.0 0.00 0.00 0.00 1 984.0
20240222184437 32 264 7.0 14.0 0.00 0.00 0.00 1 984.0
20240222183537 32 260 8.0 16.0 0.00 0.00 0.00 1 983.7
20240222182637 32 261 9.0 15.0 0.00 0.00 0.00 1 983.8
20240222181737 32 257 9.0 19.0 0.00 0.00 0.00 1 983.7
20240222180837 32 258 9.0 17.0 0.00 0.00 0.00 1 983.7
20240222175937 32 265 9.0 22.0 0.00 0.00 0.00 1 983.8
20240222175037 32 263 9.0 20.0 0.00 0.00 0.00 1 983.8
20240222174137 32 261 9.0 20.0 0.00 0.00 0.00 1 983.9
20240222173237 32 259 8.0 18.0 0.00 0.00 0.00 1 983.9
20240222172337 32 258 5.0 11.0 0.00 0.00 0.00 1 983.8
20240222171437 32 260 6.0 13.0 0.00 0.00 0.00 1 983.8
20240222170537 32 257 6.0 13.0 0.00 0.00 0.00 1 984.0
20240222165637 32 259 6.0 14.0 0.00 0.00 0.00 1 984.1
20240222164737 32 258 6.0 12.0 0.00 0.00 0.00 1 984.1
20240222163837 32 260 6.0 13.0 0.00 0.00 0.00 1 984.2